Location: San Vito
(41.8833°N, 12.9833°E)
Time: 16:02:13
(UTC+00:00)

Cosmos 1933 - Pass Details

Date: 17 November 2019
Orbit: 546 x 565 km, 82.5° (Epoch: 07 December)

Event Time Altitude Azimuth Distance (km) Brightness Sun altitude
Rises 04:56:17 0° 352° (N) 2,730 6.6 -11.9°
Reaches altitude 10° 04:58:27 10° 352° (N) 1,830 5.8 -11.5°
Maximum altitude 05:02:29 88° 84° (E) 554 3.3 -10.8°
Drops below altitude 10° 05:06:28 10° 173° (S) 1,811 6.3 -10.1°
Sets 05:08:37 0° 173° (S) 2,698 7.2 -9.7°
